Wind_Speed
27 26 25 25 23 22 22 21 19 18 19 20 21 21 20 19 20 20 19 18 18 18 20 22 23 23 22 21 21 23 25 26 25 24 23 20 23 30
30 30 29 26 23 22 23 23 23 22 22 22 22 22 21 20 19 19 18 18 18 19 21 23 23 21 20 20 20 23 24 24 23 23 23 19 17 24
27 30 32 30 25 23 23 23 24 25 25 24 23 22 22 20 18 17 17 17 18 20 21 21 18 17 18 19 20 21 21 21 21 22 24 24 21 25
25 28 31 29 24 21 20 22 23 23 25 25 23 21 20 20 18 17 17 16 16 17 17 16 15 16 17 18 18 18 19 19 18 19 20 22 24 27
21 23 24 23 22 20 19 20 21 23 25 23 21 19 18 19 18 16 16 13 13 13 14 15 15 16 16 16 16 17 17 17 16 16 18 19 22 25
19 19 21 23 23 21 20 20 21 22 21 20 20 19 20 20 18 16 14 11 11 12 13 14 15 16 15 14 14 13 14 13 13 13 13 14 17 18
23 22 24 25 25 24 21 20 20 22 21 21 21 21 23 22 19 17 14 12 11 10 11 13 15 15 14 13 11 10 9 8 8 8 7 7 8 10
26 26 27 27 26 24 21 19 20 22 22 21 22 23 25 24 20 18 15 13 11 10 11 13 15 15 14 12 10 9 7 6 6 8 8 8 8 10
28 30 30 28 27 26 23 21 21 22 22 22 22 22 23 23 21 19 17 15 13 11 12 14 16 15 13 12 11 9 7 7 7 9 9 10 11 12
26 28 31 31 29 26 24 23 23 23 24 24 24 23 22 21 20 19 18 16 14 12 12 14 16 15 13 12 12 12 11 10 10 10 11 12 12 13
25 25 28 29 28 27 26 25 25 25 25 25 25 26 25 23 21 20 19 18 15 13 13 15 16 15 14 14 14 14 14 13 13 14 13 13 14 15
24 24 24 25 27 28 28 27 26 26 28 28 27 29 29 27 25 23 21 19 16 15 15 16 17 16 16 17 17 16 16 16 16 15 15 15 15 16
25 24 23 23 26 28 29 28 27 28 30 30 28 29 30 29 28 26 23 20 18 17 18 19 18 18 18 19 19 19 19 18 18 18 17 17 17 18
27 27 26 26 27 28 28 28 28 28 29 31 29 30 31 31 30 29 27 23 20 20 21 22 21 20 21 21 21 22 22 21 22 22 21 21 20 20
27 28 28 29 29 29 29 29 29 30 30 31 31 30 32 33 34 32 29 26 23 22 23 24 23 23 23 23 23 24 25 25 25 25 25 24 23 24
22 25 27 29 29 29 29 30 30 30 30 31 34 34 35 35 35 34 31 29 27 25 25 26 25 25 26 26 26 28 28 28 28 27 27 27 27 29
23 24 25 27 28 28 28 28 29 29 29 29 32 35 38 39 38 36 34 31 29 28 27 27 27 27 28 28 29 31 32 33 32 31 31 32 34 35
23 23 23 24 24 25 25 25 26 27 29 30 31 34 38 40 41 38 35 33 32 30 28 28 29 30 30 30 32 33 34 36 37 37 37 39 41 42
23 24 25 26 25 25 25 25 25 25 26 25 27 32 36 38 37 34 33 33 34 33 30 29 31 32 33 33 34 34 36 39 40 42 43 44 45 46
24 26 27 28 28 28 27 27 25 25 26 25 23 24 26 28 28 29 30 32 34 34 33 33 34 35 33 32 33 35 39 41 43 44 45 46 46 48
23 25 26 28 29 30 30 29 28 27 26 26 25 25 26 26 26 27 30 31 32 34 35 35 36 36 35 35 36 37 37 36 37 38 39 40 42 45
22 24 26 27 28 29 30 30 29 28 28 28 30 31 32 32 32 32 32 33 34 35 36 36 36 37 38 40 40 40 39 38 38 38 39 41 43 44
18 20 21 23 25 26 27 27 28 28 28 30 32 33 34 34 34 33 33 32 33 34 35 36 37 39 41 42 42 41 41 41 41 41 42 44 45 46
Wind_Direction
243 243 239 241 247 250 248 247 248 250 253 251 251 253 257 263 266 268 266 263 266 273 279 284 286 282 276 276 281 285 288 286 277 264 251 251 245 232
243 241 237 238 247 251 249 248 252 253 254 251 251 254 258 263 263 266 265 266 271 278 283 285 282 274 273 279 285 286 288 284 270 254 244 248 246 226
239 236 236 241 248 253 251 250 254 252 251 250 247 250 257 260 259 262 267 271 278 286 286 285 278 271 273 280 284 285 285 279 267 250 243 242 242 227
231 230 231 236 240 245 245 247 250 248 249 246 243 248 255 259 261 265 269 275 284 286 284 281 278 276 275 279 283 285 282 275 266 245 237 237 239 228
228 224 225 231 234 238 243 246 247 248 248 243 238 245 253 258 261 263 267 276 282 280 279 278 279 277 273 275 279 282 280 275 257 235 223 224 224 216
234 227 227 229 232 238 244 244 244 243 240 237 240 247 253 255 259 263 266 269 276 275 277 278 277 273 269 270 276 279 282 273 253 234 213 211 204 198
236 232 230 230 234 240 241 237 237 238 246 249 249 252 255 256 258 262 260 262 269 273 278 274 271 264 260 263 267 273 282 276 257 243 225 202 185 185
234 233 233 232 235 237 233 229 232 238 248 255 257 256 255 252 251 254 254 255 260 265 272 267 260 252 252 254 252 256 266 267 256 246 238 221 203 197
232 233 234 232 233 235 233 231 234 238 245 252 256 257 252 245 243 244 245 246 248 254 264 262 251 246 246 245 239 236 241 241 231 227 222 216 210 205
229 233 234 229 227 231 233 233 232 235 240 246 250 254 250 240 238 241 242 241 241 244 253 255 245 240 236 232 228 222 220 219 219 217 213 211 213 214
224 228 228 222 223 229 235 236 234 235 236 242 247 248 244 238 236 239 242 241 238 237 241 243 239 234 226 222 220 218 216 213 213 215 217 218 221 222
222 223 220 219 223 228 233 236 237 238 237 238 245 246 243 236 234 237 241 240 237 234 236 236 232 228 225 222 222 221 218 216 216 218 220 221 224 226
223 222 221 222 225 227 229 232 238 242 240 237 243 244 238 232 231 236 237 237 236 236 236 235 229 224 224 225 225 224 224 222 222 222 223 227 232 237
229 228 229 232 233 231 232 236 240 243 242 237 241 238 232 230 231 236 237 235 235 237 236 233 228 225 226 227 227 227 228 227 227 228 231 236 240 243
232 232 234 236 237 236 237 241 243 243 242 239 237 234 233 234 236 239 241 239 236 236 237 234 229 227 227 230 231 231 230 231 231 233 236 238 240 244
239 240 241 241 242 242 243 246 247 245 243 241 237 235 236 239 240 240 241 240 238 236 235 236 233 231 231 231 233 234 234 236 237 238 242 246 249 252
245 247 247 247 248 248 247 248 247 242 240 241 243 240 237 236 237 238 239 239 240 238 235 233 233 234 234 235 236 238 238 239 241 243 248 252 256 259
247 248 250 251 252 252 251 250 247 243 243 246 248 243 236 233 235 236 236 237 239 239 237 236 235 235 235 236 239 242 245 246 247 248 251 256 260 261
250 250 251 252 252 253 254 255 252 243 240 245 248 240 234 231 230 230 232 236 239 240 239 239 240 242 241 241 243 245 248 250 252 254 256 259 263 265
256 257 257 257 256 255 256 256 251 244 238 241 243 232 224 222 226 229 234 236 238 240 241 242 244 247 249 250 252 252 251 252 254 256 259 262 264 266
264 264 262 260 258 256 255 254 250 243 236 232 233 231 227 227 231 237 241 241 241 240 242 245 248 253 257 257 255 255 256 258 258 260 262 264 266 268
271 269 265 261 259 256 252 249 246 242 237 233 232 233 235 236 239 243 246 247 247 245 245 248 253 259 262 262 257 256 259 262 264 265 267 269 270 271
281 276 269 262 258 254 250 245 242 240 237 236 236 237 237 238 240 242 244 247 248 248 250 255 262 265 266 265 260 257 260 264 268 270 272 273 274 275
Height
5818 5820 5823 5825 5826 5828 5830 5832 5833 5834 5835 5836 5837 5838 5838 5839 5840 5840 5841 5842 5842 5842 5841 5841 5841 5840 5839 5839 5837 5836 5835 5833 5833 5834 5834 5835 5836 5839
5811 5814 5816 5818 5821 5823 5825 5827 5828 5829 5830 5832 5833 5833 5833 5835 5835 5835 5835 5836 5836 5836 5835 5834 5834 5833 5833 5833 5832 5830 5828 5827 5826 5827 5828 5829 5830 5832
5802 5805 5808 5811 5814 5816 5819 5820 5822 5824 5825 5827 5828 5828 5829 5830 5830 5830 5830 5830 5830 5830 5829 5828 5827 5827 5827 5827 5826 5824 5822 5821 5820 5821 5821 5823 5825 5826
5795 5798 5801 5805 5808 5810 5812 5814 5815 5817 5819 5821 5823 5824 5825 5825 5825 5825 5825 5825 5825 5825 5824 5822 5821 5821 5821 5821 5820 5819 5817 5816 5815 5815 5816 5817 5819 5820
5788 5791 5795 5798 5801 5804 5806 5808 5810 5812 5814 5816 5818 5819 5820 5820 5821 5821 5820 5819 5819 5819 5819 5818 5817 5816 5816 5816 5816 5814 5813 5811 5810 5810 5811 5812 5813 5816
5783 5787 5790 5792 5795 5798 5800 5803 5805 5806 5808 5811 5813 5814 5814 5815 5816 5816 5816 5815 5814 5814 5813 5812 5812 5812 5813 5813 5812 5811 5809 5807 5807 5806 5806 5808 5809 5811
5778 5782 5785 5787 5790 5792 5795 5797 5799 5801 5804 5806 5807 5808 5809 5810 5811 5811 5811 5811 5810 5809 5808 5808 5809 5809 5809 5809 5809 5808 5807 5806 5805 5805 5805 5807 5808 5811
5772 5775 5778 5781 5784 5787 5789 5791 5794 5796 5798 5799 5801 5802 5803 5804 5805 5806 5806 5807 5806 5806 5804 5805 5806 5806 5806 5806 5806 5806 5806 5805 5805 5806 5807 5808 5810 5812
5764 5768 5771 5775 5778 5781 5783 5786 5788 5790 5792 5794 5795 5796 5797 5798 5799 5801 5801 5803 5803 5802 5801 5801 5802 5803 5803 5803 5803 5804 5804 5805 5805 5807 5807 5809 5810 5812
5757 5760 5763 5767 5771 5774 5776 5780 5783 5785 5787 5788 5789 5790 5792 5793 5795 5796 5796 5798 5798 5797 5797 5798 5798 5799 5799 5800 5801 5801 5802 5804 5805 5807 5808 5809 5811 5813
5750 5753 5755 5758 5762 5766 5769 5772 5775 5778 5780 5781 5783 5784 5786 5788 5790 5790 5791 5792 5793 5792 5793 5794 5794 5794 5795 5797 5799 5800 5801 5802 5804 5805 5807 5808 5809 5811
5742 5745 5748 5751 5755 5759 5762 5764 5767 5770 5773 5774 5775 5777 5779 5782 5784 5785 5786 5787 5787 5788 5790 5791 5791 5791 5792 5794 5796 5797 5798 5800 5801 5803 5804 5805 5807 5808
5734 5737 5741 5744 5749 5752 5755 5757 5759 5761 5764 5766 5767 5769 5771 5775 5777 5779 5781 5782 5783 5784 5786 5788 5787 5787 5789 5791 5793 5794 5795 5797 5798 5800 5801 5803 5804 5805
5728 5731 5734 5738 5741 5744 5747 5748 5750 5752 5755 5758 5760 5762 5764 5767 5770 5773 5775 5776 5777 5778 5781 5783 5784 5783 5785 5787 5789 5791 5792 5793 5794 5796 5797 5798 5799 5800
5722 5725 5728 5731 5734 5736 5738 5740 5741 5743 5746 5749 5752 5755 5757 5759 5762 5765 5768 5769 5770 5772 5775 5777 5779 5779 5780 5782 5784 5785 5787 5789 5790 5791 5793 5794 5794 5795
5717 5720 5722 5724 5726 5728 5730 5731 5733 5735 5737 5740 5744 5747 5749 5751 5755 5758 5760 5762 5764 5766 5769 5771 5772 5774 5775 5776 5778 5779 5781 5782 5784 5786 5787 5788 5788 5788
5712 5714 5715 5717 5718 5720 5721 5723 5725 5726 5729 5732 5735 5737 5740 5743 5746 5749 5752 5754 5757 5759 5761 5763 5766 5768 5769 5770 5771 5772 5774 5776 5777 5779 5780 5780 5780 5780
5706 5708 5709 5710 5711 5712 5713 5715 5716 5718 5720 5723 5725 5727 5730 5733 5737 5740 5744 5747 5749 5751 5753 5755 5758 5761 5763 5763 5764 5765 5767 5768 5769 5770 5771 5770 5769 5769
5700 5701 5702 5703 5704 5706 5707 5708 5709 5711 5713 5715 5716 5717 5720 5724 5728 5732 5736 5739 5741 5743 5746 5748 5750 5752 5754 5755 5756 5758 5759 5759 5759 5759 5759 5759 5758 5757
5693 5693 5694 5695 5696 5698 5699 5701 5702 5704 5706 5708 5710 5711 5714 5717 5721 5725 5728 5731 5733 5736 5738 5740 5741 5743 5745 5747 5748 5748 5747 5747 5747 5748 5748 5748 5747 5745
5685 5685 5685 5686 5687 5688 5691 5693 5695 5698 5700 5702 5704 5707 5710 5712 5715 5718 5721 5723 5725 5728 5730 5731 5732 5735 5736 5737 5737 5736 5736 5736 5737 5736 5736 5736 5735 5734
5678 5677 5677 5677 5678 5679 5682 5684 5687 5690 5693 5696 5698 5701 5703 5706 5709 5711 5713 5715 5717 5719 5720 5721 5722 5724 5725 5725 5725 5725 5725 5725 5725 5725 5724 5723 5722 5721
5672 5670 5669 5669 5669 5670 5672 5675 5678 5681 5685 5688 5690 5693 5696 5698 5701 5703 5705 5706 5708 5709 5711 5711 5712 5712 5712 5712 5712 5713 5714 5714 5713 5713 5712 5710 5709 5707